Regional Weather Roundup
Issued by NWS Cleveland, OH

Home | Current Version | Previous Version | Text Only | Print | Product List | Glossary Off
Versions: 1 2 3 4 5 6 7 8 9 10 11 12 13 14 15 16 17 18 19 20 21 22 23 24 25 26 27 28 29 30 31 32 33 34 35 36 37 38 39 40 41 42 43 44 45 46 47 48 49 50

000
ASUS41 KCLE 060310
RWRCLE
OHIO REGIONAL WEATHER ROUNDUP
NATIONAL WEATHER SERVICE WILMINGTON, OH
1100 PM EDT SUN JUL 05 2015

NOTE: "FAIR" INDICATES FEW OR NO CLOUDS BELOW 12,000 FEET WITH NO
SIGNIFICANT WEATHER AND/OR OBSTRUCTIONS TO VISIBILITY.

OHZ001>008-015>018-024>027-034-035-043-044-060400-
   NORTHWEST OHIO

CITY           SKY/WX    TMP DP  RH WIND       PRES   REMARKS
DEFIANCE       PTCLDY    68  61  78 E5        30.08R
FINDLAY        MOCLDY    70  63  78 E8        30.07S
TOLEDO EXPRESS PTCLDY    65  56  72 CALM      30.08R
TOLEDO EXEC    PTCLDY    68  59  73 E3        30.08F
LIMA           MOCLDY    68  61  78 S3        30.09R
$$

OHZ009>014-019>023-028>033-038-089-060400-
   NORTHEAST OHIO

CITY           SKY/WX    TMP DP  RH WIND       PRES   REMARKS
CLE-HOPKINS    MOCLDY    69  63  81 CALM      30.11S
CLE-LAKEFRONT  PTCLDY    70  64  81 E3        30.08S
CUY CO. ARPT   PTCLDY    68  64  88 SE7       30.11S
LORAIN-ELYRIA  PTCLDY    64  61  90 CALM      30.10S
ASHTABULA      MOCLDY    63  60  90 CALM      30.13S
AKRON-CANTON   MOCLDY    67  58  72 NE5       30.10F
WOOSTER        PTCLDY    64  60  87 CALM      30.11R
MANSFIELD      PTCLDY    67  61  81 NE5       30.11R
YOUNGSTOWN     MOCLDY    61  58  90 E5        30.12R
$$

OHZ042-051>053-060>062-070>072-077>081-060400-
  SOUTHWEST OHIO

CITY           SKY/WX    TMP DP  RH WIND       PRES   REMARKS
CINC-COVINGTON MOCLDY    68  61  78 CALM      30.09R
CINC-LUNKEN    PTCLDY    66  64  93 CALM      30.08R
HAMILTON       PTCLDY    66  64  93 CALM      30.09R
DAYTON         MOCLDY    68  62  81 E3        30.09F
WRIGHT-PAT AFB MOCLDY    68  64  88 CALM      30.09R
DAYTON GENERAL MOCLDY    68  62  81 NE3       30.08F
WILMINGTON     MOCLDY    69  62  78 N3        30.09S
$$

OHZ036-037-039>041-045>050-054>059-063>069-073>076-082>088-060400-
  CENTRAL AND SOUTHEAST OHIO

CITY           SKY/WX    TMP DP  RH WIND       PRES   REMARKS
COLUMBUS       CLOUDY    70  63  78 CALM      30.08R
OSU AIRPORT    CLEAR     70  62  76 CALM      30.09R
BOLTON FIELD   CLEAR     68  64  85 CALM      30.09S
RICKENBACK AFB MOCLDY    71  63  76 N5        30.08R
NEWARK         PTCLDY    66  63  90 CALM      30.08R
MARION         PTCLDY    66  62  87 CALM      30.10R
LANCASTER      MOCLDY    69  65  86 NW3       30.09R
ZANESVILLE     MOCLDY    72  63  73 CALM      30.08R
NEW PHILLY     CLOUDY    67  63  87 CALM      30.09S
$$



USA.gov is the U.S. government's official web portal to all federal, state and local government web resources and services.